This is the latest recevied weather packets stored in our database for station/object KC1BRV. If no packets are shown the sender has not sent any weather packets the latest 10 day(s).
| Time | Temp. | Humidity | Pressure | Rain* | Wind** | Luminosity | Snow |
|---|---|---|---|---|---|---|---|
| 1777857727 | 5.56° C | 66% | 1011.6 hPa | 0 mm | - | 0 W/m² | - |
| 1777857424 | 5.56° C | 65% | 1011.4 hPa | 0 mm | - | 0 W/m² | - |
| 1777857120 | 6.11° C | 64% | 1011.3 hPa | 0 mm | - | 0 W/m² | - |
| 1777856816 | 6.11° C | 63% | 1011.3 hPa | 0 mm | - | 0 W/m² | - |
| 1777856512 | 6.11° C | 61% | 1011.1 hPa | 0 mm | - | 0 W/m² | - |
| 1777856209 | 6.11° C | 59% | 1010.9 hPa | 0 mm | - | 0 W/m² | - |
| 1777855906 | 6.67° C | 56% | 1010.9 hPa | 0 mm | - | 0 W/m² | - |
| 1777855604 | 6.67° C | 55% | 1010.8 hPa | 0 mm | - | 0 W/m² | - |
| 1777855301 | 7.22° C | 53% | 1010.7 hPa | 0 mm | - | 0 W/m² | - |
| 1777854997 | 7.22° C | 53% | 1010.8 hPa | 0 mm | - | 0 W/m² | - |
| 1777854694 | 7.78° C | 51% | 1011 hPa | 0 mm | - | 0 W/m² | - |
| 1777854390 | 7.78° C | 51% | 1010.7 hPa | 0 mm | - | 0 W/m² | - |
| 1777854088 | 7.78° C | 50% | 1010.7 hPa | 0 mm | - | 0 W/m² | - |
| 1777853785 | 8.33° C | 49% | 1010.7 hPa | 0 mm | - | 0 W/m² | - |
| 1777853481 | 8.89° C | 47% | 1010.6 hPa | 0 mm | - | 0 W/m² | - |
| 1777853178 | 8.89° C | 46% | 1010.4 hPa | 0 mm | - | 0 W/m² | - |
| 1777852876 | 9.44° C | 44% | 1010.6 hPa | 0 mm | - | 0 W/m² | - |
| 1777852574 | 9.44° C | 42% | 1010.6 hPa | 0 mm | - | 1 W/m² | - |
| 1777852270 | 10° C | 43% | 1010.3 hPa | 0 mm | - | 1 W/m² | - |
| 1777851968 | 10° C | 40% | 1010.3 hPa | 0 mm | - | 2 W/m² | - |
| 1777851666 | 10° C | 40% | 1010.3 hPa | 0 mm | - | 4 W/m² | - |
| 1777851363 | 10° C | 40% | 1010.2 hPa | 0 mm | - | 5 W/m² | - |
| 1777851058 | 10.56° C | 41% | 1010.4 hPa | 0 mm | - | 7 W/m² | - |
| 1777850755 | 10.56° C | 40% | 1010 hPa | 0 mm | - | 9 W/m² | - |
| 1777850453 | 10.56° C | 39% | 1010.3 hPa | 0 mm | - | 11 W/m² | - |
* Rain latest hour (hover to see other rain measurements)
** Current wind speed in m/s (hover to see current wind gust speed)